EW0150 Weather Reports


time (UTC)temp
C
wind
direction
speed
KPH
gust
KPH
rain 1hr
cm
rain 24hr
cm
rain mn
cm
humidity
%
barometer
mb
20260508034007 9 343 8.0 16.1 0.00 0.64 0.28 94 1015.9
20260508033010 9 350 8.0 14.5 0.00 0.64 0.28 94 1015.7
20260508032009 9 360 8.0 16.1 0.00 0.64 0.28 94 1015.7
20260508031006 9 329 8.0 16.1 0.00 0.64 0.28 94 1015.7
20260508030012 9 340 11.3 17.7 0.00 0.64 0.28 93 1015.5
20260508025006 9 360 11.3 17.7 0.00 0.64 0.28 94 1015.5
20260508024006 9 318 12.9 20.9 0.00 0.64 0.28 93 1015.4
20260508023006 10 340 9.7 19.3 0.00 0.64 0.28 93 1015.3
20260508022006 10 328 9.7 16.1 0.00 0.64 0.28 93 1015.2
20260508021006 10 321 8.0 14.5 0.00 0.64 0.28 93 1015.1
20260508020011 10 10 9.7 17.7 0.03 0.64 0.28 93 1015.0
20260508015010 10 343 9.7 14.5 0.03 0.64 0.28 93 1015.0
20260508013006 10 344 6.4 12.9 0.03 0.64 0.28 93 1014.9
20260508011006 10 24 9.7 16.1 0.05 0.64 0.28 93 1015.0
20260508010009 10 5 8.0 16.1 0.05 0.61 0.25 93 1014.9
20260508005006 10 355 9.7 14.5 0.15 0.61 0.25 93 1015.0
20260508004006 10 360 8.0 14.5 0.20 0.61 0.25 93 1014.9
20260508003008 10 344 9.7 14.5 0.25 0.61 0.25 93 1015.1
20260508002009 10 329 6.4 14.5 0.25 0.61 0.25 94 1015.2
20260508001006 10 338 3.2 8.0 0.23 0.61 0.23 94 1015.2
20260508000009 10 317 3.2 6.4 0.20 0.56 0.20 93 1015.1
20260507235006 10 349 4.8 9.7 0.10 0.46 0.10 93 1015.1
20260507234005 10 17 4.8 9.7 0.05 0.43 0.05 93 1015.1
20260507233008 10 291 9.7 19.3 0.00 0.36 0.00 93 1015.0
20260507232005 10 329 12.9 22.5 0.00 0.36 0.00 93 1015.1
20260507231006 11 346 9.7 19.3 0.00 0.36 0.00 93 1015.1
20260507230013 11 331 9.7 17.7 0.00 0.36 0.00 93 1015.1
20260507223005 11 322 8.0 16.1 0.00 0.36 0.00 93 1015.1
20260507221007 11 326 4.8 9.7 0.03 0.36 0.00 92 1014.9
20260507220011 11 316 8.0 12.9 0.03 0.36 0.00 92 1015.0
20260507215004 11 322 9.7 17.7 0.03 0.36 0.36 92 1014.8
20260507214004 11 317 8.0 16.1 0.03 0.36 0.36 92 1014.6
20260507213006 12 344 12.9 19.3 0.03 0.36 0.36 92 1014.5
20260507212003 12 339 8.0 16.1 0.03 0.36 0.36 92 1014.5
20260507211004 12 331 6.4 14.5 0.00 0.33 0.33 92 1014.4
20260507210007 12 355 6.4 12.9 0.00 0.33 0.33 92 1014.1
20260507205005 12 350 8.0 16.1 0.00 0.33 0.33 92 1014.1
20260507204004 12 332 6.4 12.9 0.00 0.33 0.33 92 1014.2
20260507203003 12 321 6.4 12.9 0.00 0.33 0.33 92 1014.2
20260507202006 12 316 6.4 14.5 0.00 0.33 0.33 92 1014.1
20260507201003 12 5 11.3 19.3 0.00 0.33 0.33 92 1013.9
20260507200005 12 282 12.9 20.9 0.00 0.33 0.33 92 1014.2
20260507195111 12 294 8.0 14.5 0.00 0.33 0.33 91 1014.2
20260507194008 12 270 6.4 11.3 0.03 0.33 0.33 91 1014.0
20260507193008 12 306 4.8 6.4 0.18 0.33 0.33 90 1013.8
20260507192005 12 344 8.0 14.5 0.33 0.33 0.33 89 1013.5
20260507191005 12 336 9.7 14.5 0.33 0.33 0.33 88 1013.3
20260507184004 13 338 11.3 20.9 0.33 0.33 0.33 87 1013.3
20260507183004 13 311 14.5 24.1 0.15 0.15 0.15 84 1013.2
20260507182006 15 290 14.5 20.9 0.00 0.00 0.00 75 1013.0
20260507181004 15 290 9.7 19.3 0.00 0.00 0.00 73 1012.8
20260507180009 15 355 11.3 19.3 0.00 0.00 0.00 70 1012.3
20260507175005 15 341 12.9 20.9 0.00 0.00 0.00 69 1012.0
20260507174004 16 329 9.7 17.7 0.00 0.00 0.00 66 1011.8
20260507173004 16 343 11.3 20.9 0.00 0.00 0.00 64 1011.6
20260507172006 16 342 8.0 14.5 0.00 0.00 0.00 64 1011.4
20260507171007 16 343 11.3 22.5 0.00 0.00 0.00 63 1011.3
20260507170009 16 340 11.3 19.3 0.00 0.00 0.00 63 1011.2
20260507165005 17 328 11.3 19.3 0.00 0.00 0.00 60 1011.0
20260507164005 17 285 12.9 22.5 0.00 0.00 0.00 56 1010.9
20260507163004 18 273 12.9 24.1 0.00 0.00 0.00 54 1010.7
20260507162004 18 240 9.7 16.1 0.00 0.00 0.00 60 1010.5
20260507161004 18 182 11.3 17.7 0.00 0.00 0.00 59 1010.4
20260507155007 19 211 14.5 22.5 0.00 0.00 0.00 58 1010.4
20260507154009 19 238 11.3 19.3 0.00 0.00 0.00 57 1010.5
20260507153005 19 188 14.5 27.4 0.00 0.00 0.00 57 1010.6
20260507151007 20 169 11.3 19.3 0.00 0.00 0.00 59 1010.4
20260507145005 20 192 12.9 22.5 0.00 0.00 0.00 56 1010.3
20260507144007 20 209 14.5 20.9 0.00 0.00 0.00 56 1010.4
20260507143006 20 181 14.5 22.5 0.00 0.00 0.00 55 1010.3
20260507142004 20 187 11.3 22.5 0.00 0.00 0.00 56 1010.3
20260507140006 20 224 11.3 20.9 0.00 0.00 0.00 55 1010.3
20260507135004 20 224 14.5 25.7 0.00 0.00 0.00 52 1010.3
20260507134003 21 173 12.9 25.7 0.00 0.00 0.00 53 1010.2
20260507133004 20 236 12.9 20.9 0.00 0.00 0.00 51 1010.4
20260507132005 21 255 12.9 25.7 0.00 0.00 0.00 50 1010.4
20260507131004 20 222 14.5 22.5 0.00 0.00 0.00 51 1010.5
20260507130006 20 256 12.9 27.4 0.00 0.00 0.00 52 1010.6
20260507125004 21 257 12.9 24.1 0.00 0.00 0.00 51 1010.4
20260507124003 21 267 12.9 20.9 0.00 0.00 0.00 50 1010.4
20260507122004 20 255 12.9 22.5 0.00 0.00 0.00 52 1010.6
20260507121006 20 257 14.5 22.5 0.00 0.00 0.00 56 1010.6
20260507120008 20 276 16.1 30.6 0.00 0.00 0.00 57 1010.7
20260507114005 21 281 11.3 19.3 0.00 0.00 0.00 56 1010.5
20260507112005 20 267 11.3 20.9 0.00 0.00 0.00 57 1010.6
20260507111006 20 171 8.0 20.9 0.00 0.00 0.00 61 1010.6
20260507110008 19 162 6.4 16.1 0.00 0.00 0.00 62 1010.4
20260507105007 20 200 9.7 17.7 0.00 0.00 0.00 60 1010.5
20260507104005 20 211 12.9 17.7 0.00 0.00 0.00 58 1010.5
20260507103005 19 205 12.9 20.9 0.00 0.00 0.00 60 1010.5
20260507102007 19 238 11.3 22.5 0.00 0.00 0.00 60 1010.4
20260507101005 19 192 11.3 16.1 0.00 0.00 0.00 62 1010.3
20260507095005 19 257 9.7 19.3 0.00 0.00 0.00 61 1010.3
20260507094005 19 264 8.0 14.5 0.00 0.00 0.00 59 1010.2
20260507092006 20 217 11.3 17.7 0.00 0.00 0.00 61 1010.2
20260507091005 19 194 8.0 14.5 0.00 0.00 0.00 62 1010.1
20260507085006 18 215 9.7 19.3 0.00 0.00 0.00 66 1010.0
20260507084005 18 246 9.7 14.5 0.00 0.00 0.00 66 1009.9
20260507083005 18 242 8.0 19.3 0.00 0.00 0.00 67 1009.8
20260507082005 18 186 9.7 22.5 0.00 0.00 0.00 67 1009.8
20260507081005 17 237 11.3 16.1 0.00 0.00 0.00 69 1009.8
20260507080008 17 261 12.9 22.5 0.00 0.00 0.00 70 1009.8
20260507075005 17 178 11.3 20.9 0.00 0.00 0.00 72 1009.7
20260507074005 17 240 12.9 20.9 0.00 0.00 0.00 73 1009.7
20260507071005 16 253 11.3 19.3 0.00 0.00 0.00 75 1009.3
20260507065005 16 235 11.3 20.9 0.00 0.00 0.00 76 1009.2
20260507064005 15 241 14.5 25.7 0.00 0.00 0.00 78 1009.1
20260507063005 15 202 12.9 25.7 0.00 0.00 0.00 78 1008.9
20260507061005 14 182 4.8 9.7 0.00 0.00 0.00 82 1008.8
20260507060009 14 236 8.0 14.5 0.00 0.00 0.00 82 1008.9
20260507055006 15 250 4.8 11.3 0.00 0.00 0.00 82 1008.8
20260507054005 14 273 6.4 11.3 0.00 0.00 0.00 83 1008.5
20260507053005 14 234 4.8 8.0 0.00 0.00 0.00 84 1008.3
20260507052005 13 217 3.2 6.4 0.00 0.00 0.00 85 1008.3
20260507051004 13 202 4.8 9.7 0.00 0.00 0.00 86 1008.2
20260507050006 13 209 6.4 9.7 0.00 0.00 0.00 86 1008.2
20260507045004 13 199 4.8 9.7 0.00 0.00 0.00 86 1008.0
20260507044005 13 279 4.8 8.0 0.00 0.00 0.00 86 1007.9
20260507043004 13 265 4.8 11.3 0.00 0.00 0.00 86 1007.9
20260507042004 13 323 4.8 9.7 0.00 0.00 0.00 86 1007.7
20260507041005 13 290 4.8 8.0 0.00 0.00 0.00 86 1007.6
20260507040007 13 277 4.8 8.0 0.00 0.00 0.00 87 1007.4